STARLINK-32322, 61720

Orbit data source: Space-Track

STARLINK-32322, 61720 is a payload satellite owned by SpaceX/Seattle (US) in LEO that was launched on Wed, 30 Oct 2024 UTC via an FALCON 9 launch vehicle from the Air Force Eastern Test Range (AFETR). Payload-class satellites include a variety of spacecraft equipped with specific instruments for various scientific and technological missions. These include communications satellites like Starlink; space stations such as the ISS; scientific satellites like the Hubble; Earth observation satellites from companies like Planet Labs, Umbra, and HawkEye 360; GPS; miniature CubeSats for education and research; and military/defense satellites.

Loading next visibility...
Identifier
61720, 2024-196P
Orbit
LEO
Last TLE update
10 hours ago
Origin
Manufacturer
SpaceX/Seattle
Mission
Operational Commercial Communications
Bus & Motor
STARLINK V2M, Unknown motor
Mass
730 kg wet, ~700 kg dry
Launch date (UTC)
2024-10-30 (6 months ago)
Launch vehicle
FALCON 9
Launch site
Air Force Eastern Test Range (AFETR)
Object type
Payload
Rocket body
Debris
Shape & HBR
Box + 2 Pan, 29 m
Radar Cross Section
36.964 m², Large (>1 m²)

Expand to show TLE details & history

TLE from 10 hours ago
0 STARLINK-32322
1 61720U 24196P   25129.26709791  .00000316  00000-0  22792-4 0  9994
2 61720  53.1602  75.6692 0001236  80.5685 279.5455 15.30196967 30562
Epoch: 2025-05-09T06:24Z
Definitive object data (Epoch: 2025-05-09T06:24:37.259Z)
Latitude
-0.00005°
Longitude
112.18822°
Altitude
475.983 km
Speed
7.629 km/s
True Right ascension
05h 02m 40s
True Declination
0° 00' 00"
Sunlit
Object was in daylight at TLE epoch
Visualization TLE readout
Latitude
-0.00211°
Longitude
-69.78251°
Altitude
476.241 km
Speed
7.629 km/s
Apparent Right ascension
15h 13m 28s
Apparent Declination
-21° 54' 53"
Sunlit
Object is in full shadow
Visualization observer readout
Local Sidereal Time
00:46:24
Azimuth
288.944° WNW
Elevation
-54.046°
Doppler factor
1
Orbital elements
Apogee altitude
476.328 km
Perigee altitude
474.633 km
Semi-major axis
6,853.618 km
Eccentricity
0.0001236
Inclination
53.1602°
RAAN
75.6692°
Arg. of periapsis
80.5685°
True anomaly
279.53153°
Mean anomaly
279.5455°
Eccentric anomaly
279.53852°
Mean motion
3.82528 °/min
BSTAR
0.000022792
Orbital period
94.11 mins
Loading maneuver chart data...
Loading SW <> Apogee altitude chart data...
Loading historical data...
Loading historical data...
Loading historical data...
Loading historical data...
Loading historical data...
Loading historical data...
Loading historical data...

STARLINK-32322 Visibility forecast

Observer location: undefined°, undefined°

Span
Click to sort rows by Start time (UTC) header in descending order
Start Az.
Max El. time (UTC)
Max El. Az.
Max El.
End time (UTC)
End Az.
5 mins2025-05-09 22:14:54.354Z177.041° S2025-05-09 22:16:54.354Z133.892° SE23.008°2025-05-09 22:19:54.354Z75.428° E
5 mins2025-05-09 23:52:54.354Z270.573° WNW2025-05-09 23:54:54.354Z331.944° NNW31.982°2025-05-09 23:57:54.354Z35.347° NE
4 mins2025-05-10 04:49:54.354Z344.64° N2025-05-10 04:51:54.354Z34.71° NE24.398°2025-05-10 04:53:54.354Z78.606° E
5 mins2025-05-10 06:27:54.354Z283.515° WNW2025-05-10 06:29:54.354Z216.377° SW33.638°2025-05-10 06:32:54.354Z155.75° SSE
|